FW1655 Arlington MA US current weather conditions

sailwx.info

Wind from 173

Air temperature 22.8° C
Dewpoint 22.8° C

Last reported at 2020-Jul-11 05:01 UTC.
Time now 2020-Jul-11 05:18 UTC

Location: N 42°26' W 071°09'.
View on Google Maps.

See reports from other nearby stations

  
Tides and Currents Weather Stations Pressure Air Temp Water Temp Dewpoint Dewpoint Depression Visibility Wind Speed Wind Dir Waves Ship Positions
date/time (UTC)wind fromknots sea level pressurealtimeterstation pressurevisibilityair tempwater tempwave heightnotes
2020-Jul-11 05:01 173 22.8
2020-Jul-11 04:47 139 22.2
2020-Jul-11 04:31 228 1 gusting 6 22.2
2020-Jul-11 04:16 113 1 gusting 7 22.2
2020-Jul-11 04:01 174 0 gusting 12 22.2
2020-Jul-11 03:46 179 0 gusting 6 21.7
2020-Jul-11 03:31 159 21.7
2020-Jul-11 03:16 122 21.7
2020-Jul-11 03:01 100 0 gusting 6 21.7
2020-Jul-11 02:46 101 21.7
2020-Jul-11 02:30 126 21.7
2020-Jul-11 02:16 088 21.7
2020-Jul-11 02:01 122 21.7
2020-Jul-11 01:45 142 21.7
2020-Jul-11 01:30 099 21.7
2020-Jul-11 01:15 138 22.2
2020-Jul-11 01:01 099 22.2
2020-Jul-11 00:45 148 22.8
2020-Jul-11 00:30 115 22.8
2020-Jul-11 00:16 029 22.2
2020-Jul-11 00:00 073 22.2
2020-Jul-10 23:45 090 22.8
2020-Jul-10 23:30 096 22.8
2020-Jul-10 23:15 105 22.8
2020-Jul-10 23:00 086 22.8
2020-Jul-10 22:45 064 22.2
2020-Jul-10 22:30 069 22.8
2020-Jul-10 22:15 256 22.8
2020-Jul-10 22:00 096 22.8
2020-Jul-10 21:45 130 23.3
2020-Jul-10 21:30 044 22.8
2020-Jul-10 21:15 118 23.3
2020-Jul-10 21:00 127 23.9
2020-Jul-10 20:45 086 24.4
2020-Jul-10 20:30 103 24.4
2020-Jul-10 20:15 141 25.0
2020-Jul-10 20:00 198 1 gusting 10 25.6
2020-Jul-10 19:45 113 0 gusting 6 25.6
2020-Jul-10 19:30 070 26.1
2020-Jul-10 19:15 150 26.1
2020-Jul-10 19:00 188 26.7
2020-Jul-10 18:45 077 27.2
2020-Jul-10 18:17 113 26.7
2020-Jul-10 18:01 163 1 gusting 6 27.8
2020-Jul-10 17:46 149 27.8
2020-Jul-10 17:31 133 27.8
2020-Jul-10 17:16 056 28.9
2020-Jul-10 17:01 150 28.9
2020-Jul-10 16:46 145 28.9
2020-Jul-10 16:31 109 29.4
2020-Jul-10 16:16 122 30.0
2020-Jul-10 16:01 163 30.0
2020-Jul-10 15:46 154 0 gusting 5 28.9
2020-Jul-10 15:31 214 29.4
2020-Jul-10 15:16 110 28.3
2020-Jul-10 15:00 167 27.8
2020-Jul-10 14:46 116 27.8
2020-Jul-10 14:31 186 26.7
2020-Jul-10 14:15 253 26.7
2020-Jul-10 14:00 132 26.7
2020-Jul-10 13:45 252 26.1
2020-Jul-10 13:30 167 25.6
2020-Jul-10 13:16 186 25.0
2020-Jul-10 13:00 214 25.0
2020-Jul-10 12:46 165 25.0
2020-Jul-10 12:31 217 25.0
2020-Jul-10 12:15 137 24.4
2020-Jul-10 12:00 136 23.9
2020-Jul-10 11:45 250 23.3
2020-Jul-10 11:30 214 22.8
2020-Jul-10 11:15 041 22.2
2020-Jul-10 11:00 212 22.2
2020-Jul-10 10:45 160 22.2
2020-Jul-10 10:30 247 21.7
2020-Jul-10 10:15 230 21.7
2020-Jul-10 10:00
2020-Jul-10 09:45
2020-Jul-10 09:32
2020-Jul-10 09:16
2020-Jul-10 09:01
2020-Jul-10 08:45
2020-Jul-10 08:31
2020-Jul-10 08:16
2020-Jul-10 08:01
2020-Jul-10 07:45
2020-Jul-10 07:30
2020-Jul-10 07:15 214 21.7
2020-Jul-10 07:00 243 22.2
2020-Jul-10 06:45 203 22.2
2020-Jul-10 06:31 243 22.8
2020-Jul-10 06:15 243 22.8
2020-Jul-10 06:00 243 22.8
2020-Jul-10 05:45 265 22.8
2020-Jul-10 05:30 255 23.3
2020-Jul-10 05:15 226 23.3
2020-Jul-10 05:03 221 23.3
2020-Jul-10 04:49 246 23.9
2020-Jul-10 04:31 208 23.9
2020-Jul-10 04:17 224 23.9
2020-Jul-10 04:01 231 24.4
2020-Jul-10 03:49 260 24.4
2020-Jul-10 03:31 236 24.4
2020-Jul-10 03:16 255 25.0
2020-Jul-10 03:01 246 25.0
2020-Jul-10 02:46 249 25.6
2020-Jul-10 02:31 185 25.6
2020-Jul-10 02:17 229 25.6
2020-Jul-10 02:01 350 26.1
2020-Jul-10 01:46 285 26.1
2020-Jul-10 01:31 226 26.7
2020-Jul-10 01:15 195 26.7
2020-Jul-10 01:01 257 27.2
2020-Jul-10 00:46 207 27.2
2020-Jul-10 00:30 181 27.8
2020-Jul-10 00:16 264 27.8
2020-Jul-10 00:01 252 0 gusting 4 28.3
2020-Jul-09 23:47 253 28.3
2020-Jul-09 23:31 203 0 gusting 6 28.9
2020-Jul-09 23:15 184 29.4
2020-Jul-09 23:00 198 30.0
2020-Jul-09 22:45 270 30.6
2020-Jul-09 22:30 150 0 gusting 6 30.6
2020-Jul-09 22:16 157 30.0
2020-Jul-09 22:00 211 30.0
2020-Jul-09 21:45 195 30.0
2020-Jul-09 21:30 113 30.0
2020-Jul-09 21:15 115 30.0
2020-Jul-09 21:00 120 0 gusting 4 30.0
2020-Jul-09 20:45 163 30.6
2020-Jul-09 20:30 129 30.6
2020-Jul-09 20:15 137 30.6
2020-Jul-09 20:00 093 30.6
2020-Jul-09 19:45 129 31.1
2020-Jul-09 19:30 193 31.1
2020-Jul-09 19:15 108 31.1
2020-Jul-09 19:00 080 31.1
2020-Jul-09 18:45 115 31.7
2020-Jul-09 18:30 152 31.7
2020-Jul-09 18:15 181 31.1
2020-Jul-09 18:00 226 31.1
2020-Jul-09 17:45 128 31.7
2020-Jul-09 17:30 157 31.7
2020-Jul-09 17:15 094 32.2
2020-Jul-09 17:00 043 32.8
2020-Jul-09 16:45 162 31.7
2020-Jul-09 16:17 316 31.1
2020-Jul-09 16:01 311 31.1
2020-Jul-09 15:46 115 31.1
2020-Jul-09 15:32 115 30.6
2020-Jul-09 15:16 238 30.6
2020-Jul-09 15:02 134 29.4
2020-Jul-09 14:46 112 28.9
2020-Jul-09 14:32 218 28.3
2020-Jul-09 14:15 328 28.9
2020-Jul-09 14:02 336 27.8
2020-Jul-09 13:46 159 27.8
2020-Jul-09 13:31 238 26.7
2020-Jul-09 13:15 191 26.7
2020-Jul-09 13:00 328 26.1
2020-Jul-09 12:45 217 25.6
2020-Jul-09 12:30 134 25.6
2020-Jul-09 12:15 315 25.0
2020-Jul-09 12:00 219 24.4
2020-Jul-09 11:45 255 24.4
2020-Jul-09 11:30 248 23.9
2020-Jul-09 11:15 297 23.3
2020-Jul-09 11:00 257 23.3
2020-Jul-09 10:45 267 22.8
2020-Jul-09 10:31 215 22.2
2020-Jul-09 10:16 218 22.2
2020-Jul-09 10:02 210 22.2
2020-Jul-09 09:48
2020-Jul-09 09:31
2020-Jul-09 09:16
2020-Jul-09 09:01
2020-Jul-09 08:46
2020-Jul-09 08:30
2020-Jul-09 08:16
2020-Jul-09 08:01
2020-Jul-09 07:46
2020-Jul-09 07:31
2020-Jul-09 07:15
2020-Jul-09 07:01 242 22.2
2020-Jul-09 06:30 226 22.2
2020-Jul-09 06:15 232 22.2
2020-Jul-09 06:01 219 22.2
2020-Jul-09 05:45 259 22.2
2020-Jul-09 05:31 250 22.2
2020-Jul-09 05:15 247 22.2
2020-Jul-09 05:00 217 22.8